Location: Rowland
(34.5359°N, 79.2929°W)
Time: 10:17:33
(UTC+00:00)

Hubble Space Telescope - Visible Passes

Search period start: 09 August 2022 00:00
Search period end: 19 August 2022 00:00
Orbit: 532 x 535 km, 28.5° (Epoch: 08 August)

Date Brightness Start Highest point End Pass type
(mag) Time Alt. Az. Time Alt. Az. Time Alt. Az.
09 Aug 1.6 01:55:22 10° WSW 01:58:43 34° SSW 01:58:43 34° SSW visible
10 Aug 1.5 01:43:17 10° WSW 01:47:03 35° S 01:47:20 34° S visible
11 Aug 1.6 01:31:13 10° WSW 01:34:58 34° S 01:35:54 30° SSE visible
12 Aug 1.7 01:19:10 10° WSW 01:22:53 33° S 01:24:25 24° SE visible
13 Aug 1.8 01:07:08 10° WSW 01:10:47 31° S 01:12:55 19° SE visible
14 Aug 2.0 00:55:07 10° WSW 00:58:41 28° S 01:01:24 15° SE visible
15 Aug 2.2 00:43:08 10° WSW 00:46:34 26° SSW 00:49:54 11° SE visible
16 Aug 2.4 00:31:10 10° WSW 00:34:27 23° SSW 00:37:43 10° SE visible
